Regional Weather Roundup
Issued by NWS

Home | Current Version | Previous Version | Graphics & Text | Print | Product List | Glossary On
Versions: 1 2 3 4 5 6 7 8 9 10 11 12 13 14 15 16 17 18 19 20 21 22 23 24 25 26 27 28 29 30 31 32 33 34 35 36 37 38 39 40 41 42 43 44 45 46 47 48 49 50
000
ASUS43 KLMK 260902
RWRKY
KENTUCKY REGIONAL WEATHER ROUNDUP
NATIONAL WEATHER SERVICE LOUISVILLE KY
400 AM EST SUN FEB 26 2017

NOTE "FAIR" INDICATES FEW OR NO CLOUDS BELOW 12,000 FEET
WITH NO SIGNIFICANT WEATHER AND/OR OBSTRUCTIONS TO VISIBILITY.

KYZ001>023-026-027-061>063-070>075-261000-
WESTERN AND SOUTH CENTRAL KENTUCKY

CITY           SKY/WX    TMP DP  RH WIND       PRES   REMARKS
PADUCAH        CLEAR     25  18  74 CALM      30.17S
HENDERSON      CLEAR     21  14  73 SW5       30.17S WCI  15
OWENSBORO      CLEAR     25  20  81 CALM      30.18R
HOPKINSVILLE   CLEAR     27  20  75 CALM      30.17R
BOWLING GREEN  CLEAR     27  20  75 CALM      30.18S
GLASGOW        NOT AVBL
$$

KYZ024-025-028>034-038-045-046-053-261000-
NORTH CENTRAL KENTUCKY

CITY           SKY/WX    TMP DP  RH WIND       PRES   REMARKS
LOUISVILLE/SDF CLEAR     28  14  55 NW6       30.15S WCI  22
LOUISVILLE/LOU CLEAR     30  16  56 NW3       30.16R
FORT KNOX      CLEAR     22  17  82 W3        30.13S
$$

KYZ035>037-039>044-047>052-055>060-089>105-261000-
NORTHEAST KENTUCKY

CITY           SKY/WX    TMP DP  RH WIND       PRES   REMARKS
LEXINGTON      CLEAR     26  17  68 W6        30.12S WCI  19
COVINGTON      CLEAR     23  16  74 W7        30.10S WCI  15
FRANKFORT      CLEAR     26  16  65 W3        30.13R
$$

KYZ054-064>069-076>088-106>120-261000-
SOUTHEAST KENTUCKY

CITY           SKY/WX    TMP DP  RH WIND       PRES   REMARKS
JACKSON        CLEAR     27  18  69 SW3       30.10R
LONDON         CLEAR     25  21  85 CALM      30.12S
SOMERSET       PTCLDY    25  25 100 CALM      30.16S
MIDDLESBORO    CLEAR     26  24  91 CALM      30.14R
MONTICELLO     SUNNY     18  15  88 W8        30.17R WCI   8
$$





USA.gov is the U.S. government's official web portal to all federal, state and local government web resources and services.